User: anonymous
Location: Hiram
(41.3130°N, 81.1440°W)
Time: 20:01:23
(UTC-04:00)
Language:

Iridium 62 - Orbit

View from above orbital plane
View from above orbital plane
View from above satellite
View from above satellite

Ground track
Ground track

The orbit data is extracted from the following two-line orbital elements,

1 25285U 98021A   14263.45407855  .00000131  00000-0  39803-4 0  9381
2 25285 086.3917 282.2026 0002380 104.3877 255.7583 14.34219396861588
Epoch (UTC): 20 September 2014 10:53:52
Eccentricity: 0.0002380
inclination: 86.3917°
perigee height: 776 km
apogee height: 779 km
right ascension of ascending node: 282.2026°
argument of perigee: 104.3877°
revolutions per day: 14.34219396
mean anomaly at epoch: 255.7583°
orbit number at epoch: 86158

The dashed part of the orbit path shows where the satellite is in the earth's shadow,  

DLR